Über Beidou DW 33
Group: 3 satellites
Beschreibung wird geladen...
Live-Position
3D-Globus wird geladen...
Nächste Überflüge
Höhenverlauf
Altitude vs Time
uPlot chart will show altitude changes over time
Zweizeiliger Elementsatz
1 43581U 18062A 25351.07915928 .00000114 00000-0 00000-0 0 9991
2 43581 54.0895 188.4955 0002067 356.8892 3.1782 1.86228923 50243
Epoch: 17. Dez. 2025 •
Age: 47 hours
Aktueller Status
Höhe 21547.4 km
Geschwindigkeit 3.78 km/s
Subsatellitenpunkt -48.01°S,
46.72°W
Startdatum 29. Juli 2018
Alter 7.3 years
Typ navigation
Technische Details
Klassifizierung Payload
Masse 1014.00 kg
Trockenmasse 850.00 kg
Gesamtmasse 1014.00 kg
Länge 2.20 m
Durchmesser 1.70 m
Spannweite 10.00 m
Form Box + 2 Pan
Hersteller CAST
Bus-Typ BD-3M
Phasenstatus In Orbit
Besitzer/Staat CNSA/CN
Große Konstellationen
Loading constellations...